Location: Allie Creek
(37.5926°N, 89.8526°W)
Time: 15:04:43
(UTC+00:00)

SL-16 R/B - Pass Details

Date: 26 April 2024
Orbit: 841 x 845 km, 71.0° (Epoch: 25 May)

Event Time Altitude Azimuth Distance (km) Brightness Sun altitude
Exits shadow 04:26:39 42° 318° (NW) 1,182 3.2 -34.5°
Drops below altitude 10° 04:31:20 10° 10° (N) 2,470 5.2 -34.9°
Sets 04:33:55 0° 16° (NNE) 3,410 6.0 -35.1°
